Theta_e
321 319 318 319 319 319 320 320 320 321 322 321 318 321 320 330 334 336 337 337 339 340 340 339 338 336 336 336 336 338 339 338 338 336 336 339 338 338 336 334 334 336 335 332
319 318 319 320 321 322 321 321 321 321 323 323 322 321 323 324 331 339 344 342 342 341 340 339 339 337 337 335 341 339 339 341 338 337 338 340 341 339 338 337 337 334 332 330
317 319 320 322 322 322 321 321 321 323 321 320 324 323 324 339 341 342 344 343 341 341 340 341 339 337 335 336 339 342 341 342 339 340 341 341 341 340 339 336 334 331 330 327
317 319 320 322 323 323 321 322 323 324 322 320 321 320 321 335 341 340 339 342 340 341 340 339 336 334 333 334 336 336 341 344 344 342 342 341 340 339 335 333 331 330 328 323
322 321 321 322 322 323 322 323 324 324 323 322 322 319 319 335 340 342 337 336 338 336 335 335 334 333 332 340 341 344 344 344 341 339 338 335 333 332 330 329 328 326 321 316
320 323 321 321 322 322 323 325 321 320 319 322 322 319 319 320 339 342 339 335 336 344 345 345 342 340 342 341 340 339 339 339 336 331 331 331 329 329 329 328 323 315 314 312
320 321 321 323 322 322 323 319 320 322 321 322 322 323 321 322 338 343 341 340 342 342 342 341 340 339 338 334 331 329 329 328 327 328 328 329 329 328 323 317 312 307 308 309
319 321 322 323 321 322 320 319 320 323 324 323 323 326 327 333 334 343 341 339 339 340 338 337 333 331 329 327 327 327 327 328 329 330 328 325 319 313 310 309 308 306 305 303
320 322 322 322 322 321 322 321 319 321 323 323 323 333 338 333 334 335 333 333 333 335 333 331 330 329 329 327 327 328 329 329 328 324 318 313 312 313 312 309 307 305 302 302
318 321 321 321 324 321 321 320 322 319 323 324 324 329 338 336 334 332 332 331 332 332 331 332 331 331 329 328 327 327 327 324 320 317 315 315 315 313 308 307 306 305 303 303
319 318 321 320 321 321 320 321 321 319 321 323 325 324 326 336 333 333 331 331 331 331 332 332 331 330 328 327 325 324 322 320 318 316 314 316 314 306 307 308 307 306 303 303
317 318 320 321 320 322 321 321 320 322 322 325 324 324 329 334 332 333 331 331 331 332 332 331 331 329 326 325 324 322 319 319 319 315 316 314 308 310 308 308 307 307 304 305
318 318 320 320 320 322 323 321 320 319 320 321 325 325 327 330 331 332 331 331 331 332 332 331 330 329 327 324 323 320 319 319 318 316 317 312 311 309 308 307 307 308 307 306
325 320 321 324 322 321 326 324 321 322 323 322 326 326 331 332 332 331 331 331 332 332 332 331 328 328 325 325 322 321 320 318 318 318 315 310 308 308 307 308 308 308 307 308
323 322 322 322 323 322 324 327 326 323 322 324 324 325 323 333 333 332 332 332 332 332 332 330 329 328 326 325 323 322 320 320 319 317 309 308 309 309 308 308 308 308 308 308
320 320 321 326 323 323 324 325 325 325 324 325 324 324 329 333 334 333 333 332 332 333 331 330 329 328 327 326 324 322 322 320 318 310 307 309 310 309 308 308 307 307 308 307
317 321 321 324 324 325 325 325 324 325 325 325 326 325 331 335 333 333 333 333 333 331 331 330 329 329 328 326 325 325 322 319 314 307 309 310 309 308 308 308 307 306 305 303
315 319 324 325 324 329 326 322 324 325 327 330 332 331 332 335 333 332 333 333 330 332 330 330 329 329 327 326 326 324 321 317 308 310 310 310 309 309 308 307 306 305 304 304
313 319 324 327 326 325 325 327 326 327 326 328 333 331 331 333 332 332 332 330 331 333 331 330 330 329 328 326 324 321 318 308 309 310 310 310 309 307 308 306 305 305 304 305
314 317 322 328 330 330 328 327 331 326 330 329 331 330 333 332 333 330 331 334 333 332 330 330 330 329 326 324 322 318 311 310 309 311 311 306 308 308 307 306 306 305 306 305
317 327 323 324 330 327 328 329 329 330 327 331 331 330 329 328 332 332 333 333 333 331 331 330 329 327 324 323 317 313 309 310 311 309 305 308 309 308 307 306 305 305 305 305
322 327 328 328 330 332 329 329 328 326 332 331 330 330 331 333 333 332 333 332 331 331 330 328 327 325 322 316 312 307 310 308 306 308 310 309 308 308 306 304 304 304 304 305
322 323 325 328 328 325 329 330 330 331 331 330 331 332 332 331 330 330 330 330 329 329 327 326 325 320 315 309 309 308 308 307 307 309 308 307 307 306 305 304 305 305 306 306
326 326 328 327 326 327 327 330 331 332 330 330 331 332 332 330 330 330 330 327 327 326 324 321 319 316 310 307 310 309 308 309 306 306 307 308 307 304 304 305 304 305 306 306
326 325 326 327 329 328 329 331 329 332 332 330 329 329 332 332 330 327 328 326 324 322 319 318 316 309 305 307 309 309 309 308 306 307 307 306 304 303 303 305 305 305 306 306
325 324 326 328 327 327 329 329 330 329 328 331 332 330 331 329 329 327 325 323 321 319 317 314 311 310 310 310 310 309 309 306 307 307 307 305 303 304 305 305 306 305 306 305
Wind_Speed
10 2 7 9 7 7 5 6 9 14 16 7 9 13 10 28 24 15 26 25 39 36 35 34 30 28 26 21 25 26 28 26 23 20 23 20 21 25 21 18 15 21 23 23
2 8 10 8 7 6 7 8 17 11 6 4 5 10 4 7 14 30 28 24 35 41 39 37 31 30 20 22 20 19 17 28 24 25 27 27 26 24 21 18 18 18 17 19
8 9 9 11 10 7 10 6 9 8 5 2 3 6 5 8 24 23 21 31 38 46 43 40 37 29 19 27 18 17 17 20 24 24 25 31 27 23 18 15 12 15 17 18
7 14 12 9 12 8 8 8 9 5 5 4 4 4 7 6 9 11 22 31 36 40 38 37 34 28 21 14 15 15 15 14 15 22 24 25 19 14 13 12 12 16 20 20
8 3 7 8 14 9 11 8 5 2 2 2 2 4 8 12 4 8 10 17 31 32 32 30 27 25 22 13 9 9 13 13 9 8 6 6 6 7 9 12 16 17 18 16
8 13 6 9 16 9 9 2 8 6 3 2 5 6 5 5 10 7 14 19 28 33 29 28 27 24 19 12 11 12 11 10 8 6 7 6 6 8 12 15 14 14 15 11
7 11 6 10 8 5 4 6 3 5 4 7 4 3 8 3 19 20 21 24 24 32 33 30 27 21 15 12 13 13 12 11 9 7 6 7 10 13 13 12 11 11 11 12
7 12 11 8 8 10 8 10 6 6 3 7 4 3 6 9 23 37 33 34 34 34 30 26 22 19 17 15 15 13 11 9 10 10 10 11 11 9 9 10 10 10 11 12
5 7 7 6 4 8 4 3 9 6 1 2 3 1 5 7 14 25 26 28 31 33 29 24 21 17 16 17 15 15 16 16 14 12 10 7 5 6 8 8 8 10 10 9
8 10 13 16 4 6 6 6 3 3 4 5 5 3 5 7 14 15 19 24 31 31 29 26 22 20 17 17 18 17 15 13 12 8 4 2 6 7 7 7 9 9 10 11
15 6 16 5 6 10 5 1 5 5 5 7 4 6 7 16 20 23 28 34 36 36 34 28 22 17 16 16 14 12 12 11 7 4 2 4 7 7 7 7 9 12 12 11
9 7 12 19 13 7 7 8 8 6 6 3 4 7 3 15 18 27 25 28 36 40 36 30 23 18 17 16 15 13 12 8 5 2 3 5 5 5 8 9 11 13 12 11
6 2 6 9 8 2 6 7 8 4 3 8 6 7 3 10 5 15 33 35 41 40 34 29 28 26 20 18 14 14 11 5 3 4 7 6 5 8 8 9 11 11 14 14
10 6 9 16 15 6 5 5 9 8 5 6 8 7 5 6 13 28 32 42 46 39 32 31 30 20 19 17 15 13 9 7 5 7 7 6 7 8 9 10 12 15 15 17
1 5 5 18 19 16 12 8 6 5 7 8 9 10 10 12 16 35 44 42 45 37 32 29 27 21 20 18 16 12 8 6 7 8 7 5 6 9 11 11 13 15 14 15
1 4 7 13 15 18 13 11 10 5 5 6 5 7 4 13 22 26 37 39 39 37 30 29 27 22 21 17 14 10 7 7 7 6 3 3 7 8 10 10 13 13 14 18
2 1 4 6 12 7 7 19 10 5 6 7 7 8 9 8 19 30 33 37 39 32 31 34 30 22 18 16 11 8 7 7 6 3 1 3 5 6 10 14 15 14 15 14
8 4 3 5 6 6 12 8 9 10 7 5 5 12 17 24 27 31 44 44 33 32 35 35 28 22 18 15 11 8 7 5 3 1 1 3 8 11 12 13 13 13 14 10
8 4 2 4 5 7 10 2 7 7 9 7 12 14 22 25 23 13 34 32 38 39 37 34 25 22 19 15 10 8 7 5 4 2 3 8 12 8 11 11 12 15 9 13
9 6 6 1 4 11 3 5 3 5 6 2 18 23 27 27 6 4 27 36 38 35 35 29 26 23 19 15 11 9 8 6 3 3 8 9 5 9 13 10 12 10 12 13
4 3 12 9 6 7 5 3 9 8 11 9 31 31 22 6 10 27 33 38 35 35 30 27 25 21 17 12 12 10 6 3 3 6 3 3 7 9 10 10 12 10 13 15
9 7 5 3 5 13 4 3 10 8 9 24 27 27 26 31 41 37 36 33 33 32 29 26 22 18 13 12 10 8 5 3 0 1 3 6 9 10 10 9 11 12 15 17
8 11 7 10 7 4 3 4 2 23 27 27 33 29 39 45 42 39 36 34 32 29 26 20 16 16 15 13 9 8 5 3 1 3 6 3 6 10 9 9 12 14 15 16
5 2 5 4 6 7 17 10 16 15 20 34 39 43 45 45 41 39 34 28 26 22 20 19 17 15 15 12 10 6 4 3 3 4 4 7 10 5 5 9 12 15 19 19
4 7 3 5 4 3 5 17 28 27 19 31 34 35 42 41 35 34 34 30 25 22 20 16 15 14 13 14 10 5 1 5 3 4 7 8 8 10 8 7 13 20 20 11
2 5 3 3 3 2 5 8 30 35 27 33 42 38 41 39 39 35 32 27 26 24 19 17 14 14 14 11 8 3 2 4 3 7 7 11 14 7 6 12 14 16 11 9
Wind_Direction
258 103 231 240 221 213 244 257 277 288 283 272 232 218 228 196 202 169 186 194 189 178 177 174 174 171 184 205 198 208 205 197 190 215 249 247 242 244 239 242 269 291 299 294
323 240 231 232 244 251 264 270 279 279 256 5 1 267 264 125 186 166 158 158 169 171 175 181 179 182 194 201 195 195 195 205 207 232 253 242 244 240 244 264 280 287 287 302
194 236 209 235 262 255 259 222 258 245 326 334 55 336 310 52 109 124 141 162 173 176 184 192 192 193 200 198 205 188 194 217 235 251 227 236 245 251 256 274 281 294 297 303
225 243 246 247 249 236 267 229 254 334 40 287 79 270 310 91 84 121 153 167 163 171 180 186 187 178 176 193 226 219 222 232 228 221 225 234 240 246 265 261 271 283 284 287
236 220 225 243 246 252 250 266 252 317 96 34 53 99 266 131 127 159 165 172 171 168 168 170 176 177 182 196 199 214 231 241 212 206 226 231 226 235 251 271 279 280 280 286
227 262 217 238 253 231 260 214 31 37 54 340 250 142 277 188 174 171 170 169 160 158 157 160 162 170 182 189 202 213 209 201 196 194 200 211 237 263 275 274 277 274 272 278
295 278 275 268 285 291 177 64 345 339 348 246 8 13 237 227 169 171 165 163 165 160 156 158 156 160 164 175 181 177 169 169 168 183 204 236 251 257 257 261 268 272 273 281
210 273 261 241 194 231 203 155 157 213 224 271 334 265 281 305 174 158 157 163 165 164 164 163 153 158 161 166 169 168 161 169 180 200 213 227 236 248 267 283 292 298 304 310
186 253 263 252 251 153 225 150 188 150 46 359 234 141 34 64 104 133 144 155 163 167 163 159 153 163 163 165 169 175 180 187 189 194 199 214 230 259 275 292 305 315 323 328
227 260 260 268 343 285 193 176 92 11 209 260 274 215 200 169 148 152 160 165 166 166 162 164 164 170 167 170 170 176 179 184 178 183 185 260 299 304 312 318 328 337 346 350
210 165 255 310 181 239 312 280 63 128 142 194 262 262 215 181 175 172 174 170 164 165 165 163 167 175 179 177 176 180 184 187 180 182 248 300 295 304 315 329 343 352 348 353
222 198 234 242 233 187 184 233 181 150 227 204 190 267 233 177 179 175 161 148 154 165 162 163 171 177 187 186 185 193 186 188 195 233 307 311 306 320 334 335 347 351 353 1
325 291 251 288 299 137 188 199 203 122 87 199 196 261 82 157 144 143 139 146 158 161 166 176 178 176 182 190 196 200 203 212 240 299 310 309 325 344 340 347 2 358 2 3
307 217 202 232 222 172 203 222 206 168 139 193 222 230 236 164 149 145 153 157 163 167 175 180 177 178 182 192 203 212 218 227 271 298 288 313 337 352 355 1 1 1 355 353
92 261 263 236 224 230 225 218 184 222 208 166 221 200 218 187 166 163 161 160 162 171 180 184 183 181 184 192 212 218 218 259 283 288 296 325 349 4 359 353 350 350 344 337
227 269 345 277 214 220 227 213 214 198 189 243 223 238 224 148 141 151 159 160 165 180 186 186 188 182 192 208 218 218 259 284 277 288 303 338 350 350 340 335 332 328 329 329
252 246 30 280 307 191 244 233 212 209 197 177 201 205 147 140 161 163 164 168 177 187 192 191 187 190 202 209 217 248 268 270 287 308 15 344 322 315 318 323 325 326 336 344
241 144 160 253 317 239 244 184 184 205 214 131 99 149 163 163 171 171 175 178 190 185 191 189 188 192 198 205 219 235 249 262 263 152 266 302 293 301 313 329 330 337 349 352
198 151 245 194 202 283 294 268 158 165 253 194 141 139 131 137 150 186 192 200 186 188 189 185 190 194 198 205 208 220 227 208 194 262 273 285 296 309 332 326 339 340 346 343
186 183 194 195 226 235 296 219 113 77 249 88 152 156 154 149 131 222 174 185 180 182 182 182 185 189 191 188 202 201 192 200 221 266 285 295 316 328 330 324 347 336 338 333
182 169 209 226 231 283 279 192 132 165 242 167 164 163 152 119 149 150 162 168 170 170 172 176 178 181 184 192 186 192 189 181 254 287 311 338 332 336 336 336 341 330 326 319
202 175 192 124 192 251 197 290 166 211 157 150 156 158 136 137 143 149 153 152 161 161 163 169 171 178 179 175 183 170 171 205 277 44 340 325 327 324 329 330 336 330 326 319
241 208 212 185 205 215 169 153 251 159 156 147 146 150 143 137 141 146 142 154 160 158 162 167 177 170 165 166 165 153 133 89 140 338 334 336 337 334 328 321 329 338 335 338
267 9 198 121 211 197 194 190 164 178 169 161 155 151 151 142 149 147 145 161 159 159 165 167 166 167 160 159 155 153 96 4 342 334 324 340 336 351 320 338 342 339 339 336
252 326 260 251 45 106 191 206 194 177 170 163 166 166 156 153 163 161 159 164 164 162 162 163 158 155 151 150 153 129 42 336 345 352 344 348 5 327 335 2 350 336 336 334
39 270 226 186 346 213 283 201 174 172 174 176 159 152 160 166 160 161 161 164 164 165 159 151 139 139 141 135 124 124 355 345 3 358 6 8 2 37 19 345 337 342 339 333